54DEWAPOKER AGEN JUDI KARTU BANDAR TARUHAN TEXAS POKER ONLINE

Jackpot

Texas Poker Multi Jackpot System

Kini Telah hadir Jackpot SUPER ROYAL FLUSH

Kini Telah hadir Jackpot 2000 (khusus table VIP keatas).

Ikutilah global jackpot yang tersedia di system kami, dengan system jackpot terbaru dan pertama di indonesia, anda dapat membeli jackpot dengan harga 100 rupiah saja dan menangkan hadiahnya hingga puluhan juta rupiah.

Jackpot bukanlah suatu keharusan untuk dibeli, namun kami memberikan suatu fitur tambahan untuk member tercinta dari www.54dewapoker.org.

Terdapat tiga pilihan harga jackpot yang bisa anda beli yaitu :100,500,1000 dan 2000(khusus table VIP Keatas) rupiah.

Hadiah dari Multi jackpot system www.54dewapoker.org

  1. full house x 10 harga jackpot yang anda beli.
      (contoh:anda membeli 1000 maka:1000 X10 = 10.000)
  2. four of kind x 250 harga jackpot yang anda beli
      (contoh:anda membeli 1000 maka:1000 X250 = 250.000)
  3. Straight flush x 1200
      (contoh:anda membeli 1000 maka:1000 X1200 = 1.200.000)
  4. Royal flush x 10000 harga jackpot yang anda beli
      (contoh:anda membeli 1000 maka:1000 X10000 = 10.000.000)
  5. SUPER ROYAL FLUSH x 30000 harga jackpot yang anda beli
      (contoh:anda membeli 1000 maka:1000 X30000 = 30.000.000)

Kondisi kartu

  1. full house adalah kondisi kartu dimana kartu anda dan kartu tengah dengan total 7 kartu bisa mendapatkan nilai 5 kartu dengan kombinasi 1 tris(three of kind) dan 1 pair, contoh 3 kartu 10 dan 2 kartu 5
  2. Four of kind adalah kondisi kartu dimana kartu anda dan kartu tengah dengan total 7 kartu bisa mendapatkan nilai 5 kartu dengan kombinasi 4 kartu yang sama jumlah dan 1 kartu apapun juga contoh anda mendapatkan 4 buah kartu angka 3 dan 1 kartu apapun.
  3. Staright flush adalah kondisi kartu dimana kartu anda dan kartu tengah dengan total 7 kartu bisa mendapatkan nilai 5 kartu dengan kombinasi seri / staright dengan kembang yang sama contoh : urutan kartu dari angka 5, 6, 7, 8 , 9 10 dengan kembang yg sama misalnya as hati
  4. Royal flush adalah kondisi kartu dimana kartu anda dan kartu tengah dengan total 7 kartu bisa mendapatkan nilai 5 kartu dengan kombinasi seri / staright dengan kembang yang sama tetapi kartu tersebut haruslah dimulai dari 10. contoh 10, Queen, Jack, King dan aces dengan kembang yang sama
  5. Super Royal flush adalah kondisi kartu dimana Kedua kartu anda digabung dengan 3 kartu pertama meja haruslah royal flush. contoh kartu anda 10,Queen kembang sama dan 3 kartu pertama meja adalah Jack, King dan aces dengan kembang yang sama

Demikian adalah penjelasan dari Multi Jackpot www.54dewapoker.org terima kasih dan selamat bermain salam hoki dari kami

Texas Poker Jackpot Winner

TOP SUPER ROYAL FLUSH
No.TanggalNamaPriceWin
115/12 16:03ROESLI19Super Royal flush6,000,000
215/12 14:37TXW8GPQ0R8Super Royal flush30,000,000
315/12 11:10MAKHSuper Royal flush15,000,000
414/12 20:48KABOJA999Super Royal flush3,000,000
514/12 14:49MELESETSuper Royal flush30,000,000
TOP ROYAL FLUSH
No.TanggalNamaPriceWin
115/12 20:45CEKLICHANRoyal flush1,000,000
215/12 20:43A53D68C0Royal flush5,000,000
315/12 20:43LIKE_JPRoyal flush2,000,000
415/12 20:24KUDIL991Royal flush1,000,000
515/12 19:28B067C658Royal flush2,000,000
TOP STRAIGHT FLUSH
No.TanggalNamaPriceWin
115/12 20:45T4DGIEL981Straight Flush1,200,000
215/12 20:42BOELOED88Straight Flush120,000
315/12 20:42REKAYA28Straight Flush2,400,000
415/12 20:42JIMBROStraight Flush2,400,000
515/12 20:40BENJIMEN9Straight Flush240,000
LATEST JACKPOT
No.TanggalNamaPriceWin
115/12 20:45K0K033Full House5,000
215/12 20:45BIGCOINFull House2,000
315/12 20:45LAOGI01Full House2,000
415/12 20:45MANTAR88Full House10,000
515/12 20:45CROCSFull House2,000
615/12 20:45N9CX3XDQ0CFull House1,000
715/12 20:45PACUS102Full House10,000
815/12 20:45BIONIC888Four Of A Kind125,000
915/12 20:45XXJHONYXXFull House5,000
1015/12 20:45TATA2000Full House5,000
1115/12 20:45DANNY80Full House10,000
1215/12 20:45KHODIJAH19Full House1,000
1315/12 20:45DIOTJ87Full House2,000
1415/12 20:45KUDA5777Full House2,000
1515/12 20:45OMJP2JTFull House1,000
1615/12 20:45JACK000Full House2,000
1715/12 20:45JOYLO1Full House1,000
1815/12 20:45NPAKCOJN3OFull House10,000
1915/12 20:45OPIC03Full House5,000
2015/12 20:45MISCHI3FFull House1,000
2115/12 20:45ISNOVNOVFull House10,000
2215/12 20:45CIKLONGFull House5,000
2315/12 20:45NESTAKAMIFull House1,000
2415/12 20:45JELEX1808Full House5,000
2515/12 20:45KARINLABILFull House10,000
2615/12 20:45C055EC35Full House5,000
2715/12 20:45FARA_99Full House5,000
2815/12 20:45WITA160774Full House2,000
2915/12 20:45ZOLAPUTRA1Full House1,000
3015/12 20:45CEPEK898Full House2,000
3115/12 20:45MARKUYA234Full House1,000
3215/12 20:45R0ROMB3H3NFour Of A Kind125,000
3315/12 20:45JPBOS08Four Of A Kind250,000
3415/12 20:45SOTY45Full House1,000
3515/12 20:45BOMBOM48Full House2,000
3615/12 20:45CEFTYJ23Full House5,000
3715/12 20:45KOPRAL15Full House1,000
3815/12 20:45L4HUNG100Full House10,000
3915/12 20:45ATENG521Full House10,000
4015/12 20:45ZFAHMI21Full House2,000
4115/12 20:45SUBEHFull House5,000
4215/12 20:45T127ZXPCGFFull House500
4315/12 20:45B023F535Full House1,000
4415/12 20:45WUNGJI22Four Of A Kind500,000
4515/12 20:45FAFA9922Full House10,000
4615/12 20:45MAYLO05Full House20,000
4715/12 20:45SAKULA8Full House5,000
4815/12 20:45CEKLICHANRoyal flush1,000,000
4915/12 20:45RAJAMLJT9Full House10,000
5015/12 20:45CBC2A6D0Full House10,000

Domino Multi Jackpot System

Ikutilah global jackpot yang tersedia di system kami, dengan system jackpot terbaru dan pertama di indonesia, anda dapat membeli jackpot dengan harga 100 rupiah saja dan menangkan hadiahnya hingga puluhan juta rupiah.

Jackpot bukanlah suatu keharusan untuk dibeli, namun kami memberikan suatu fitur tambahan untuk member tercinta dari www.54dewapoker.org.

Terdapat tiga pilihan harga jackpot yang bisa anda beli yaitu :100,500 dan 1000 rupiah.

Hadiah dari Multi jackpot system www.54dewapoker.org

  1. Murni Kecil x 50 harga jackpot yang anda beli.
      (contoh:anda membeli 1000 maka:1000 X 50 = 50.000)
  2. Murni Besar x 50 harga jackpot yang anda beli
      (contoh:anda membeli 1000 maka:1000 X 50 = 50.000)
  3. BALAK x 100 harga jackpot yang anda beli
      (contoh:anda membeli 1000 maka:1000 X 100 = 100.000)
  4. ENAM DEWA x 6666 harga jackpot yang anda beli
      (contoh:anda membeli 1000 maka:1000 X 6666 = 6.666.000)

Demikian adalah penjelasan dari Multi Jackpot www.54dewapoker.org terima kasih dan selamat bermain salam hoki dari kami

Domino Jackpot Winner

TOP ENAM DEWA
No.TanggalNamaPriceWin
115/12 20:43ABAHALFARmurni enam666,600
215/12 19:31HIHIHII22murni enam3,333,000
315/12 18:41MENTREK99murni enam3,333,000
415/12 17:57W4NB0Ymurni enam3,333,000
515/12 16:04KUNCORO183murni enam666,600
TOP BALAK
No.TanggalNamaPriceWin
115/12 20:43V19E10Pbalak100,000
215/12 20:42UWIEZ182balak100,000
315/12 20:42NGATANGbalak50,000
415/12 20:40TRIHUT99balak50,000
515/12 20:39WANWILLYbalak100,000
LATEST JACKPOT
No.TanggalNamaPriceWin
115/12 20:45BOAMCUYmurni besar25,000
215/12 20:44DADU37murni kecil5,000
315/12 20:44EDOHASANmurni kecil25,000
415/12 20:44GATSBY95lucky9910,000
515/12 20:43V19E10Pbalak100,000
615/12 20:43ABAHALFARmurni enam666,600
715/12 20:43BALUTA55murni besar25,000
815/12 20:43CAK456murni kecil25,000
915/12 20:42UWIEZ182balak100,000
1015/12 20:42DADU37murni besar5,000
1115/12 20:42AQ02murni besar25,000
1215/12 20:42WKWKWKWKWKmurni besar50,000
1315/12 20:42NGATANGbalak50,000
1415/12 20:41FBYDJmurni kecil50,000
1515/12 20:41SADAMSmurni kecil50,000
1615/12 20:41TEMPURJPmurni kecil5,000
1715/12 20:40BENGHULmurni besar50,000
1815/12 20:40BDR1114murni kecil50,000
1915/12 20:40NGGOWBmurni kecil25,000
2015/12 20:40UKIABImurni besar50,000
2115/12 20:40NAMARAFCmurni besar5,000
2215/12 20:40TONER_BABImurni besar25,000
2315/12 20:40TRIHUT99balak50,000
2415/12 20:39SUBDIT1murni besar25,000
2515/12 20:39TEMPURJPmurni besar5,000
2615/12 20:39DAPAH66murni besar5,000
2715/12 20:39WANWILLYbalak100,000
2815/12 20:39BUDIGMmurni kecil25,000
2915/12 20:38DADONG9murni kecil50,000
3015/12 20:38RENGKUH_CUmurni besar25,000
3115/12 20:38DODA2310murni kecil50,000
3215/12 20:38SUBDIT1murni besar25,000
3315/12 20:38RAWONCOYmurni kecil25,000
3415/12 20:37T0ID1murni kecil25,000
3515/12 20:37MZEN234murni kecil50,000
3615/12 20:37FANTUZZImurni kecil50,000
3715/12 20:37MRS84murni besar50,000
3815/12 20:37BAHSINbalak100,000
3915/12 20:36ARHAM1126murni kecil25,000
4015/12 20:36LORENK87murni kecil5,000
4115/12 20:35OMENPEREZmurni kecil5,000
4215/12 20:35THENGULLLLbalak50,000
4315/12 20:35KARUNIAQQQmurni kecil25,000
4415/12 20:34SOFANAbalak50,000
4515/12 20:34KULAMBITbalak100,000
4615/12 20:34KOINAWANmurni kecil50,000
4715/12 20:33CMD98463murni kecil5,000
4815/12 20:33XX8JJWMLVmurni kecil50,000
4915/12 20:33PATBALAK66murni kecil25,000
5015/12 20:33ALDEBRAN99murni kecil5,000

Ceme Multi Jackpot System

Jackpot dilihat dari gabungan kartu pemain dengan kartu bandar. Bandar harus membeli jackpot sebanyak jumlah player yang sedang duduk. Sebagai contoh bila terdapat 3 pemain duduk bermain, dan bandar memutuskan untuk membeli jackpot Rp 1.000, maka pada periode tersebut bandar akan membeli jackpot sebanyak 3xRp1.000 = Rp3.000.

Jackpot bukanlah suatu keharusan untuk dibeli, namun kami memberikan suatu fitur tambahan untuk member tercinta dari www.54dewapoker.org.

Terdapat tiga pilihan harga jackpot yang bisa anda beli yaitu :100,500 dan 1000 rupiah.

Hadiah dari Multi jackpot system www.54dewapoker.org

  1. Murni Kecil x 50 harga jackpot yang anda beli.
      (contoh:anda membeli 1000 maka:1000 X 50 = 50.000)
  2. Murni Besar x 50 harga jackpot yang anda beli
      (contoh:anda membeli 1000 maka:1000 X 50 = 50.000)
  3. BALAK x 200 harga jackpot yang anda beli
      (contoh:anda membeli 1000 maka:1000 X 200 = 200.000)
  4. ENAM DEWA x 6666 harga jackpot yang anda beli
      (contoh:anda membeli 1000 maka:1000 X 6666 = 6.666.000)

Demikian adalah penjelasan dari Multi Jackpot www.54dewapoker.org terima kasih dan selamat bermain salam hoki dari kami

Ceme Jackpot Winner

TOP ENAM DEWA
No.TanggalNamaPriceWin
115/12 20:41BAFIL90murni enam3,333,000
215/12 20:38BOJONK15murni enam6,666,000
315/12 20:37MFDLCJR8CWmurni enam3,333,000
415/12 19:27IC3111ANmurni enam666,600
515/12 19:23MINAH_AJAmurni enam3,333,000
TOP BALAK
No.TanggalNamaPriceWin
115/12 20:45DCORNER378balak200,000
215/12 20:45TIGADOBELbalak200,000
315/12 20:44NADEP88balak200,000
415/12 20:44RY4N007balak100,000
515/12 20:44TARMIN65balak200,000
LATEST JACKPOT
No.TanggalNamaPriceWin
115/12 20:45BUTUN420murni besar50,000
215/12 20:45SIANZU9murni besar50,000
315/12 20:45ARJUNADJmurni besar5,000
415/12 20:45HENDRII11murni kecil50,000
515/12 20:45B16ASmurni kecil5,000
615/12 20:45AHEN168murni besar50,000
715/12 20:45CODOTSAKTImurni besar5,000
815/12 20:45AYIP83murni besar5,000
915/12 20:45CARKECO564murni besar25,000
1015/12 20:45KHAPRETS82murni besar50,000
1115/12 20:45REZEKIKU99murni besar50,000
1215/12 20:45WR1088murni kecil50,000
1315/12 20:45GEMPOR57murni besar50,000
1415/12 20:45SMGHOKI1murni besar5,000
1515/12 20:45D3W44PKmurni besar5,000
1615/12 20:45DCORNER378balak200,000
1715/12 20:45TIGADOBELbalak200,000
1815/12 20:45BILINmurni kecil50,000
1915/12 20:45SIANZU9murni kecil50,000
2015/12 20:45MELO_Xmurni kecil50,000
2115/12 20:44BREM008murni kecil50,000
2215/12 20:44MANDRA133murni kecil25,000
2315/12 20:44HK_5888murni kecil50,000
2415/12 20:44NADEP88balak200,000
2515/12 20:44NADEP88murni besar50,000
2615/12 20:44RAYVALDO2murni kecil50,000
2715/12 20:44RAYVALDO2murni kecil50,000
2815/12 20:44KRUILIWAmurni besar5,000
2915/12 20:44RY4N007balak100,000
3015/12 20:44FABAAmurni kecil50,000
3115/12 20:44SITUYUL88murni kecil25,000
3215/12 20:44TARMIN65balak200,000
3315/12 20:44JEVI87balak200,000
3415/12 20:44SOMAILA1balak20,000
3515/12 20:43JOH1111murni kecil25,000
3615/12 20:43B3R4KINmurni besar50,000
3715/12 20:43TRUMP30JTmurni besar50,000
3815/12 20:43MADUNZmurni kecil5,000
3915/12 20:43FUKYUNG85balak20,000
4015/12 20:43MV368520murni besar25,000
4115/12 20:43RAJASA66murni besar5,000
4215/12 20:43TUKINEM9balak200,000
4315/12 20:43CUAN002murni besar5,000
4415/12 20:43ETACADUKmurni kecil50,000
4515/12 20:43DOLON30murni besar50,000
4615/12 20:43SAKE321balak200,000
4715/12 20:42AYAMEUREN9murni kecil5,000
4815/12 20:42FABAAmurni kecil50,000
4915/12 20:42JADDIHImurni kecil25,000
5015/12 20:42FAMOIbalak20,000